This is the latest recevied weather packets stored in our database for station/object KE6LRO. If no packets are shown the sender has not sent any weather packets the latest 10 day(s).
| Time | Temp. | Humidity | Pressure | Rain* | Wind** | Luminosity | Snow |
|---|---|---|---|---|---|---|---|
| 1778106587 | 22.22° C | 31% | 1015.6 hPa | 0 mm | - | 133 W/m² | - |
| 1778106284 | 22.22° C | 32% | 1015.7 hPa | 0 mm | - | 136 W/m² | - |
| 1778105981 | 22.22° C | 33% | 1015.5 hPa | 0 mm | - | 464 W/m² | - |
| 1778105678 | 22.22° C | 32% | 1015.7 hPa | 0 mm | - | 180 W/m² | - |
| 1778105376 | 22.22° C | 34% | 1015.7 hPa | 0 mm | - | 224 W/m² | - |
| 1778105071 | 22.22° C | 34% | 1015.9 hPa | 0 mm | - | 242 W/m² | - |
| 1778104768 | 22.22° C | 39% | 1016.1 hPa | 0 mm | - | 411 W/m² | - |
| 1778104464 | 22.22° C | 33% | 1015.9 hPa | 0 mm | - | 210 W/m² | - |
| 1778104160 | 22.22° C | 35% | 1016.3 hPa | 0 mm | - | 722 W/m² | - |
| 1778103857 | 22.22° C | 33% | 1016.3 hPa | 0 mm | - | 190 W/m² | - |
| 1778103555 | 21.67° C | 35% | 1016.2 hPa | 0 mm | - | 228 W/m² | - |
| 1778103252 | 21.67° C | 34% | 1016.3 hPa | 0 mm | - | 713 W/m² | - |
| 1778102949 | 21.67° C | 33% | 1016.3 hPa | 0 mm | - | 149 W/m² | - |
| 1778102645 | 23.33° C | 33% | 1016.3 hPa | 0 mm | - | 235 W/m² | - |
| 1778102339 | 23.89° C | 31% | 1016.5 hPa | 0 mm | - | 367 W/m² | - |
| 1778102036 | 23.33° C | 32% | 1016.3 hPa | 0 mm | - | 793 W/m² | - |
| 1778101734 | 22.78° C | 32% | 1016.5 hPa | 0 mm | - | 275 W/m² | - |
| 1778101430 | 22.22° C | 33% | 1016.5 hPa | 0 mm | - | 557 W/m² | - |
| 1778101128 | 21.67° C | 35% | 1016.5 hPa | 0 mm | - | 196 W/m² | - |
| 1778100823 | 22.78° C | 33% | 1016.6 hPa | 0 mm | - | 176 W/m² | - |
| 1778100520 | 24.44° C | 31% | 1016.8 hPa | 0 mm | - | 764 W/m² | - |
| 1778100218 | 22.78° C | 32% | 1016.8 hPa | 0 mm | - | 793 W/m² | - |
| 1778099915 | 23.33° C | 32% | 1016.8 hPa | 0 mm | - | 737 W/m² | - |
| 1778099612 | 22.22° C | 31% | 1016.8 hPa | 0 mm | - | 240 W/m² | - |
| 1778099309 | 22.22° C | 34% | 1016.6 hPa | 0 mm | - | 196 W/m² | - |
* Rain latest hour (hover to see other rain measurements)
** Current wind speed in m/s (hover to see current wind gust speed)